Location: Biltmore Gardens
(41.6070°N, 83.4666°W)
Time: 15:16:22
(UTC+00:00)

Cosmos 2016 Rocket - Pass Details

Date: 14 July 2020
Orbit: 948 x 999 km, 83.0° (Epoch: 12 August)

Event Time Altitude Azimuth Distance (km) Brightness Sun altitude
Exits shadow 07:07:35 43° 165° (SSE) 1,312 4.3 -23.6°
Maximum altitude 07:09:38 72° 94° (E) 1,011 4.0 -23.5°
Drops below altitude 10° 07:15:50 10° 12° (NNE) 2,723 7.4 -23.0°
Sets 07:18:23 0° 10° (N) 3,682 8.3 -22.8°
